{"data":{"norad_id":61772,"intl_designator":"2024-199AP","name":"HYPERVIEW 1G (RS66S)","alt_names":[],"object_type":"PAYLOAD","status":"ACTIVE","operator":null,"country":"CIS","launch_date":"2024-11-04","launch_site_code":"VOSTO","launch_vehicle":null,"mission":null,"orbit_class":"UNKNOWN","rcs_meters":null,"size_class":null,"mass_kg":null,"dimensions":null,"purposes":["comms"],"wikipedia_slug":null,"has_3d_model":false,"image_url":null,"decayed_at":null,"tle_current":{"epoch":"2026-08-17T07:37:32.107872Z","epoch_age_seconds":2967761,"freshness":"OLD","line1":"1 61772U 24199AP  26229.31773273  .04014987  24027-5  12848-2 0  9990","line2":"2 61772  97.2507 113.3438 0006565 216.1019 143.9831 16.26267348144384","mean_motion":16.26267348,"eccentricity":0.0006565,"inclination_deg":97.2507,"raan_deg":113.3438,"arg_perigee_deg":216.1019,"mean_anomaly_deg":143.9831,"bstar":0.0012848,"rev_number":14438,"period_min":88.546326762997,"perigee_km":198.26983110088,"apogee_km":206.91032575485,"semimajor_km":6580.7270784279,"source":"CELESTRAK","updated_at":"2026-08-18T09:01:22.944561Z"}}}